Location: Helds Island Access
(38.5526°N, 91.5997°W)
Time: 07:16:02
(UTC-05:00)

Daily predictions for brighter satellites

Satellite Brightness Start Highest point End
(mag) Time Altitude Azimuth Time Altitude Azimuth Time Altitude Azimuth
SL-19 R/B 4.4 19:13:06 10° SSE 19:18:37 65° ENE 19:24:24 10° N
Atlas Centaur 2 3.8 19:12:10 10° WSW 19:20:15 47° S 19:27:50 10° ESE
Cosmos 1844 4.3 19:17:21 10° NNW 19:22:51 61° WSW 19:28:18 10° S
ATLAS CENTAUR R/B 1.7 19:19:19 10° NNW 19:23:24 46° NE 19:27:09 10° SE
BREEZE-M DEB (TANK) 3.7 19:20:25 10° NW 19:23:40 88° SSW 19:34:01 10° SE
Abrixas rocket 4.2 19:24:30 10° WNW 19:27:25 28° SW 19:30:18 10° SSE
ALOS 3.7 19:27:45 10° ESE 19:31:00 19° ENE 19:34:15 10° NNE
Cosmos 1844 Rocket 4.4 19:26:27 10° NW 19:31:33 37° WSW 19:36:39 10° S
Cosmos 1437 2.7 19:31:55 10° N 19:35:09 61° E 19:38:22 10° SSE
ASTRO E2 4.1 19:32:14 10° SW 19:35:36 26° S 19:38:55 10° ESE
Cosmos 1766 3.5 19:33:34 10° SSE 19:37:22 48° E 19:41:13 10° NNE
Cosmos 2346 Rocket 4.4 19:31:48 10° N 19:37:54 82° E 19:43:56 10° S
FREGAT/IRIS 2.8 19:35:29 10° SSE 19:38:29 50° ENE 19:41:30 10° N
Cosmos 2237 Rocket 3.0 19:32:59 10° SW 19:38:35 57° WNW 19:44:11 10° NNE
Spot 2 Rocket 3.8 19:34:01 10° SE 19:38:46 43° ENE 19:43:31 10° N
NOAA 12 4.1 19:36:10 10° SSE 19:41:22 71° ENE 19:46:38 10° N
Cosmos 2056 Rocket 3.6 19:36:29 10° NNW 19:41:54 66° ENE 19:47:16 10° SSE
OAO 3 Rocket 3.7 19:37:36 10° WSW 19:42:08 45° SSE 19:46:04 14° E
COSMO-SKYMED 1 4.0 19:41:35 10° N 19:45:43 43° WNW 19:49:48 10° SW
NOSS 3-2 (C) 3.6 19:40:18 10° SSW 19:46:06 53° ESE 19:52:23 10° NE
Helios 1A 3.4 19:42:54 10° SE 19:46:49 41° ENE 19:50:46 10° N
CZ-4C R/B 3.3 19:42:18 10° WSW 19:47:23 46° NW 19:53:07 10° NNE
CENTAUR R/B 4.1 19:47:44 10° SE 19:48:51 12° ESE 19:48:51 12° ESE
ATLAS 5 CENTAUR R/B 2.2 19:46:00 10° S 19:50:24 40° ESE 19:55:05 10° NE
Cosmos 1371 Rocket 4.3 19:46:08 10° NNW 19:51:25 76° WSW 19:56:44 10° S
ASTEX 1 4.4 19:48:55 10° NNE 19:52:53 24° E 19:56:49 10° SE
Cosmos 1953 2.9 19:50:15 10° SSE 19:53:51 33° E 19:57:27 10° NNE
SL-16 R/B 2.2 19:51:26 10° SSW 19:57:07 88° ESE 20:02:51 10° NNE
Aureole 2 Rocket 3.1 19:54:52 10° SSW 19:59:15 83° WNW 20:03:37 10° NNE
Cosmos 2034 Rocket 4.1 19:56:01 10° SSE 20:02:04 56° E 20:08:13 10° NNE
Cosmos 1464 Rocket 3.9 19:58:59 10° S 20:05:15 81° E 20:11:28 10° N
Cosmos 1766 Rocket 3.6 20:03:09 10° N 20:07:29 56° E 20:11:44 10° SSE
Cosmos 1624 Rocket 4.5 20:04:14 10° NNW 20:09:23 63° WSW 20:14:29 10° S
Cosmos 1805 3.3 20:07:01 10° S 20:10:50 54° E 20:14:41 10° NNE
HJ-1C 3.4 20:08:07 10° S 20:11:27 79° WSW 20:14:50 10° NNW
Cosmos 724 4.5 20:07:11 10° S 20:12:49 49° ESE 20:18:37 10° NE
H-2A R/B 3.4 20:12:12 28° ESE 20:13:24 35° ENE 20:16:58 10° N
Meteor 1-29 3.0 20:14:12 10° N 20:17:44 83° WNW 20:21:14 10° SSW
SL-8 R/B 4.5 20:14:13 10° SSW 20:18:23 31° SE 20:19:07 29° ESE
Cosmos 1378 4.3 20:19:50 10° NNW 20:23:24 45° W 20:26:58 10° SSW
Cosmos 2278 Rocket 4.1 20:19:03 10° NW 20:23:52 29° WSW 20:28:40 10° SSW
USA 215 3.7 20:18:05 10° NE 20:24:31 62° NW 20:30:56 10° WSW
Cosmos 1544 3.1 20:22:49 10° S 20:26:28 55° E 20:30:08 10° NNE
Cosmos 2297 4.3 20:22:17 10° NNW 20:27:50 58° WSW 20:33:20 10° S
Timation 1 Rocket 4.4 20:23:07 10° NNW 20:29:06 83° WSW 20:34:28 13° SSE
Cosmos 1076 Rocket 3.9 20:25:21 10° NNW 20:29:38 63° W 20:33:54 10° S
FENGYUN 3A 3.5 20:25:39 11° SSE 20:30:49 75° ENE 20:36:13 10° N
Cosmos-2242 2.9 20:27:29 10° S 20:31:50 89° E 20:36:15 10° N
ERS-1 Rocket 4.2 20:34:40 25° NE 20:34:40 25° NE 20:38:07 10° NNE
Cosmos 1758 3.5 20:30:31 10° SSW 20:34:34 72° W 20:38:40 10° N
Helios 1B rocket 3.7 20:32:54 10° N 20:36:47 42° WNW 20:40:40 10° SW
Cosmos 1842 Rocket 4.2 20:39:26 36° NE 20:39:26 36° NE 20:42:24 10° NNE
Cosmos 1452 Rocket 3.4 20:33:25 10° NNW 20:38:42 89° ENE 20:41:52 25° SSE
Cosmos 1500 Rocket 4.0 20:37:58 10° N 20:41:42 44° ENE 20:41:42 44° ENE
SeaSat 1 2.3 20:38:09 10° NNE 20:43:06 70° ESE 20:48:00 10° SSW
Cosmos 1408 Rocket 4.4 20:38:53 10° NNW 20:43:07 50° W 20:47:16 10° SSW
Cosmos 2369 Rocket 3.3 20:39:00 10° N 20:43:36 27° NE 20:43:36 27° NE
Cosmos 1603 3.6 20:38:27 10° SSW 20:44:10 81° ESE 20:49:57 10° NNE
Resurs 01 Rocket 3.1 20:41:16 10° SSW 20:45:22 37° W 20:49:31 10° NNW
SEDSat Delta rocket 4.5 20:42:11 10° WSW 20:48:38 46° S 20:50:22 38° SE
CZ-4B DEB 3.6 20:48:46 46° SW 20:49:11 50° W 20:52:24 10° NNW
Cosmos 1943 Rocket 4.1 20:51:44 10° NNE 20:53:53 15° NE 20:53:53 15° NE
ATLAS CENTAUR R/B 4.1 20:59:56 10° WNW 21:01:56 13° WSW 21:03:51 10° SW
Cosmos 1420 Rocket 3.9 20:57:26 10° NNW 21:02:46 81° ENE 21:03:19 71° SE
ALOS 3.4 21:04:35 15° SSW 21:08:06 41° W 21:12:32 10° NNW
Cosmos 1674 3.9 21:04:56 10° N 21:07:21 36° NNW 21:07:21 36° NNW
Atlas Centaur 2 4.0 21:02:19 10° W 21:09:22 31° SSW 21:11:38 26° S
Cosmos 1743 Rocket 4.1 21:05:36 10° NNW 21:09:57 56° W 21:10:41 49° SW
Cosmos 1269 Rocket 4.3 21:08:31 10° SSW 21:13:45 66° WNW 21:19:01 10° NNE
GP-B 4.1 21:13:44 10° N 21:16:39 40° N 21:16:39 40° N
Cosmos 1048 Rocket 4.3 21:15:12 10° SSW 21:20:29 67° WNW 21:25:45 10° NNE
Cosmos 1092 Rocket 4.1 21:17:29 10° NNW 21:23:40 71° W 21:25:37 45° SSW
Cosmos 2142 Rocket 4.4 21:23:10 55° S 21:24:43 90° S 21:31:09 10° N
OAO 3 Rocket 4.3 21:20:42 10° W 21:23:54 39° WSW 21:23:54 39° WSW
Envisat 4.0 21:30:15 39° N 21:30:15 39° N 21:33:26 10° N
ATLAS 5 CENTAUR R/B 3.8 21:31:07 10° WSW 21:35:11 26° NW 21:39:34 10° NNE
Cosmos 1634 Rocket 4.2 21:33:47 41° SSW 21:36:04 69° W 21:42:17 10° N
CENTAUR R/B 3.6 21:33:34 10° SSW 21:47:41 - NNE 21:36:16 29° SSW
Cosmos 2026 Rocket 4.2 21:34:19 10° N 21:39:13 60° N 21:39:13 60° N
Cosmos 2369 Rocket 4.0 22:22:37 10° NW 22:25:24 27° NW 22:25:24 27° NW
Cosmos 1943 Rocket 4.4 22:33:47 10° NNW 22:35:24 20° NNW 22:35:24 20° NNW
